Location: *
(45.5224°N, 122.7471°W)
Time: 21:21:42
(UTC+00:00)

Cosmos 2227 - Pass Details

Date: 09 April 2020
Orbit: 833 x 862 km, 71.0° (Epoch: 02 June)

Event Time Altitude Azimuth Distance (km) Brightness Sun altitude
Exits shadow 12:42:43 - 217° (SW) 2,684 6.3 -9.6°
Reaches altitude 10° 12:43:22 10° 218° (SW) 2,440 6.1 -9.5°
Maximum altitude 12:48:54 63° 299° (WNW) 931 4.3 -8.6°
Drops below altitude 10° 12:54:29 10° 21° (NNE) 2,454 7.2 -7.7°
Sets 12:56:58 0° 24° (NNE) 3,393 8.1 -7.3°
